K9UO Weather Reports


time (UTC)temp
F
wind
direction
speed
knots
gust
knots
rain 1hr
in
rain 24hr
in
rain mn
in
humidity
%
barometer
mb
20260906225014 75 58 0.9 2.6 0.00 0.00 0.00 63 1017.9
20260906224534 75 53 0.9 1.7 0.00 0.00 0.00 61 1017.8
20260906224015 75 59 0.9 1.7 0.00 0.00 0.00 60 1017.8
20260906223519 75 40 0.9 2.6 0.00 0.00 0.00 61 1017.9
20260906223034 75 40 0.9 2.6 0.00 0.00 0.00 61 1018.0
20260906222506 75 46 0.9 1.7 0.00 0.00 0.00 59 1018.0
20260906222009 75 55 0.9 3.5 0.00 0.00 0.00 59 1018.0
20260906221527 76 46 1.7 3.5 0.00 0.00 0.00 60 1017.9
20260906221011 76 68 0.9 2.6 0.00 0.00 0.00 62 1017.8
20260906220511 76 61 0.9 4.3 0.00 0.00 0.00 63 1017.7
20260906220030 76 52 0.9 4.3 0.00 0.00 0.00 61 1017.7
20260906215513 76 71 1.7 4.3 0.00 0.00 0.00 61 1017.8
20260906215012 77 67 2.6 4.3 0.00 0.00 0.00 61 1017.8
20260906214532 77 30 0.9 1.7 0.00 0.00 0.00 60 1017.7
20260906214015 77 40 0.9 7.8 0.00 0.00 0.00 59 1017.8
20260906213516 77 51 0.9 7.8 0.00 0.00 0.00 58 1017.8
20260906213034 77 63 2.6 7.0 0.00 0.00 0.00 58 1017.8
20260906212517 77 44 0.9 3.5 0.00 0.00 0.00 59 1017.9
20260906212016 77 76 1.7 5.2 0.00 0.00 0.00 61 1017.9
20260906211516 77 57 2.6 5.2 0.00 0.00 0.00 61 1017.8
20260906211007 77 42 0.9 4.3 0.00 0.00 0.00 58 1017.8
20260906210513 77 60 1.7 4.3 0.00 0.00 0.00 58 1017.8
20260906210023 77 70 0.0 2.6 0.00 0.00 0.00 59 1017.9
20260906205511 77 60 0.0 4.3 0.00 0.00 0.00 63 1018.0
20260906205012 76 57 1.7 6.1 0.00 0.00 0.00 61 1018.1
20260906204504 77 44 2.6 7.0 0.00 0.00 0.00 62 1018.0
20260906204004 77 63 4.3 7.0 0.00 0.00 0.00 60 1017.9
20260906203503 76 49 1.7 7.0 0.00 0.00 0.00 61 1018.0
20260906203003 77 35 1.7 7.0 0.00 0.00 0.00 61 1018.0
20260906202506 77 61 2.6 5.2 0.00 0.00 0.00 60 1018.0
20260906202003 76 54 1.7 10.4 0.00 0.00 0.00 61 1018.1
20260906201510 76 61 1.7 10.4 0.00 0.00 0.00 60 1018.1
20260906201003 76 62 3.5 10.4 0.00 0.00 0.00 62 1017.9
20260906200503 76 69 1.7 7.8 0.00 0.00 0.00 61 1017.9
20260906200003 77 65 4.3 7.8 0.00 0.00 0.00 60 1017.9
20260906195506 76 51 2.6 7.0 0.00 0.00 0.00 61 1018.0
20260906195003 76 43 1.7 6.1 0.00 0.00 0.00 61 1018.0
20260906194504 75 67 1.7 2.6 0.00 0.00 0.00 65 1018.1
20260906194002 75 36 0.9 7.8 0.00 0.00 0.00 63 1017.9
20260906193503 76 29 1.7 7.8 0.00 0.00 0.00 63 1017.8
20260906193005 75 54 3.5 7.0 0.00 0.00 0.00 62 1018.0
20260906192503 75 40 1.7 7.8 0.00 0.00 0.00 64 1018.1
20260906192003 76 49 3.5 9.6 0.00 0.00 0.00 60 1018.1
20260906191506 76 75 4.3 9.6 0.00 0.00 0.00 60 1018.1
20260906191003 75 39 1.7 8.7 0.00 0.00 0.00 62 1018.2
20260906190503 75 83 2.6 9.6 0.00 0.00 0.00 65 1018.2
20260906190005 75 63 1.7 9.6 0.00 0.00 0.00 64 1018.2
20260906185503 75 42 1.7 9.6 0.00 0.00 0.00 63 1018.2
20260906185003 75 60 5.2 9.6 0.00 0.00 0.00 63 1018.2
20260906184503 75 57 2.6 8.7 0.00 0.00 0.00 63 1018.2
20260906184005 75 25 5.2 9.6 0.00 0.00 0.00 65 1018.3
20260906183502 75 42 0.9 9.6 0.00 0.00 0.00 62 1018.3
20260906183012 75 59 3.5 8.7 0.00 0.00 0.00 64 1018.3
20260906182503 75 65 3.5 10.4 0.00 0.00 0.00 63 1018.4
20260906182003 75 70 6.1 10.4 0.00 0.00 0.00 64 1018.4
20260906181512 75 56 2.6 5.2 0.00 0.00 0.00 64 1018.4
20260906181003 74 28 0.9 7.8 0.00 0.00 0.00 65 1018.4
20260906180503 74 33 0.9 10.4 0.00 0.00 0.00 65 1018.5
20260906180008 75 40 5.2 10.4 0.00 0.00 0.00 65 1018.5
20260906175503 75 63 3.5 8.7 0.00 0.00 0.00 64 1018.5
20260906175002 74 80 3.5 8.7 0.00 0.00 0.00 65 1018.5
20260906174506 74 69 4.3 8.7 0.00 0.00 0.00 66 1018.5
20260906174004 74 67 3.5 8.7 0.00 0.00 0.00 69 1018.6
20260906173503 73 65 1.7 8.7 0.00 0.00 0.00 68 1018.7
20260906173009 73 28 1.7 8.7 0.00 0.00 0.00 70 1018.7
20260906172503 73 68 2.6 8.7 0.00 0.00 0.00 70 1018.8
20260906172002 73 71 3.5 10.4 0.00 0.00 0.00 70 1018.9
20260906171515 74 69 6.1 10.4 0.00 0.00 0.00 69 1018.9
20260906171003 74 75 2.6 7.8 0.00 0.00 0.00 70 1018.8
20260906170503 74 66 2.6 8.7 0.00 0.00 0.00 71 1018.8
20260906170008 74 59 4.3 8.7 0.00 0.00 0.00 70 1018.8
20260906165502 74 61 1.7 7.0 0.00 0.00 0.00 75 1018.8
20260906165003 73 63 3.5 6.1 0.00 0.00 0.00 73 1018.8
20260906164503 73 11 0.9 6.1 0.00 0.00 0.00 71 1018.9
20260906164004 73 42 1.7 3.5 0.00 0.00 0.00 73 1018.9
20260906163507 73 29 0.9 3.5 0.00 0.00 0.00 75 1019.0
20260906163011 73 5 0.9 7.8 0.00 0.00 0.00 76 1019.0
20260906162502 72 71 1.7 7.8 0.00 0.00 0.00 76 1019.1
20260906162004 72 61 0.9 7.0 0.00 0.00 0.00 76 1018.9
20260906161507 72 65 3.5 7.0 0.00 0.00 0.00 76 1018.9
20260906161007 72 59 0.9 3.5 0.00 0.00 0.00 76 1018.9
20260906160503 72 34 1.7 3.5 0.00 0.00 0.00 76 1019.0
20260906160005 72 13 0.9 7.8 0.00 0.00 0.00 78 1019.0
20260906155504 71 62 1.7 7.8 0.00 0.00 0.00 77 1019.0
20260906155003 71 55 1.7 4.3 0.00 0.00 0.00 77 1019.1
20260906154508 71 44 0.9 3.5 0.00 0.00 0.00 79 1019.1
20260906154005 70 18 0.9 3.5 0.00 0.00 0.00 78 1019.1
20260906153503 70 30 0.9 4.3 0.00 0.00 0.00 78 1019.1
20260906153006 70 46 1.7 4.3 0.00 0.00 0.00 79 1019.1
20260906152503 70 30 0.9 5.2 0.00 0.00 0.00 79 1019.0
20260906152004 70 67 2.6 5.2 0.00 0.00 0.00 79 1019.0
20260906151521 70 66 0.9 2.6 0.00 0.00 0.00 79 1019.1
20260906151005 70 27 0.9 2.6 0.00 0.00 0.00 78 1019.1
20260906150504 70 44 0.9 5.2 0.00 0.00 0.00 78 1019.1
20260906150008 70 57 0.9 5.2 0.00 0.00 0.00 80 1019.1
20260906145503 70 34 1.7 5.2 0.00 0.00 0.00 80 1019.0
20260906145004 69 69 2.6 4.3 0.00 0.01 0.00 81 1019.0
20260906144508 69 33 0.9 3.5 0.00 0.01 0.00 79 1018.9
20260906144004 69 46 0.9 3.5 0.00 0.01 0.00 79 1019.0
20260906143504 69 36 0.9 3.5 0.00 0.01 0.00 81 1018.9
20260906143010 69 80 0.9 3.5 0.00 0.01 0.00 79 1018.8
20260906142507 69 33 1.7 3.5 0.00 0.02 0.00 80 1018.7
20260906142005 69 50 0.9 3.5 0.00 0.02 0.00 78 1018.6
20260906141511 68 49 0.9 3.5 0.00 0.02 0.00 78 1018.6
20260906141007 69 47 0.9 6.1 0.00 0.02 0.00 79 1018.7
20260906140502 69 34 2.6 6.1 0.00 0.03 0.00 78 1018.6
20260906140013 68 51 1.7 5.2 0.00 0.03 0.00 78 1018.6
20260906135507 68 54 0.9 6.1 0.00 0.03 0.00 80 1018.6
20260906135003 68 46 1.7 6.1 0.00 0.03 0.00 80 1018.6
20260906134510 67 50 1.7 5.2 0.00 0.03 0.00 79 1018.6
20260906134005 67 42 0.9 5.2 0.00 0.03 0.00 80 1018.6
20260906133503 67 64 2.6 5.2 0.00 0.03 0.00 80 1018.5
20260906133010 67 56 1.7 5.2 0.00 0.03 0.00 82 1018.6
20260906132506 66 37 0.9 3.5 0.00 0.03 0.00 81 1018.7
20260906132005 66 29 0.9 1.7 0.00 0.03 0.00 81 1018.7
20260906131509 65 67 0.9 4.3 0.00 0.03 0.00 82 1018.5
20260906131003 65 62 2.6 4.3 0.00 0.03 0.00 83 1018.5
20260906130504 64 74 0.9 1.7 0.00 0.03 0.00 85 1018.5
20260906130018 63 48 0.9 1.7 0.00 0.03 0.00 85 1018.6
20260906125503 63 40 0.0 1.7 0.00 0.03 0.00 87 1018.5
20260906125004 63 34 0.9 1.7 0.00 0.03 0.00 86 1018.4
20260906124511 63 44 0.9 1.7 0.00 0.03 0.00 87 1018.3
20260906124005 62 40 0.9 1.7 0.00 0.03 0.00 87 1018.1
20260906123504 62 44 0.9 1.7 0.00 0.03 0.00 87 1017.9
20260906123017 62 46 0.9 1.7 0.00 0.03 0.00 88 1017.9
20260906122505 62 69 0.9 2.6 0.00 0.03 0.00 88 1017.9
20260906122005 62 61 0.9 2.6 0.00 0.03 0.00 88 1018.0
20260906121525 62 61 0.9 1.7 0.00 0.04 0.00 89 1018.0
20260906121007 62 53 0.9 1.7 0.00 0.06 0.00 89 1017.9
20260906120507 62 76 0.9 1.7 0.00 0.06 0.00 90 1017.8
20260906120012 62 62 0.9 1.7 0.00 0.06 0.00 90 1017.8
20260906115505 61 65 0.0 1.7 0.00 0.06 0.00 90 1017.7
20260906115007 61 65 0.9 3.5 0.00 0.06 0.00 89 1017.6
20260906114509 61 67 1.7 3.5 0.00 0.06 0.00 89 1017.4
20260906114003 61 70 1.7 3.5 0.00 0.06 0.00 89 1017.4
20260906113504 61 65 1.7 2.6 0.00 0.06 0.00 89 1017.4
20260906113035 61 65 0.9 2.6 0.00 0.06 0.00 89 1017.3
20260906112506 61 67 0.9 2.6 0.00 0.06 0.00 89 1017.3
20260906112002 61 65 0.9 2.6 0.00 0.06 0.00 89 1017.3
20260906111503 62 65 0.9 2.6 0.00 0.06 0.00 89 1017.2
20260906111002 62 62 0.9 4.3 0.00 0.06 0.00 89 1017.1
20260906110503 62 60 1.7 4.3 0.00 0.07 0.00 89 1017.1
20260906110004 62 64 1.7 3.5 0.00 0.07 0.00 89 1017.1
20260906105503 62 61 1.7 3.5 0.00 0.07 0.00 89 1017.1
20260906105003 62 61 1.7 2.6 0.00 0.07 0.00 89 1017.1
20260906104509 62 66 0.9 1.7 0.00 0.07 0.00 89 1017.1
20260906104004 62 65 0.9 1.7 0.00 0.07 0.00 89 1017.0
20260906103503 62 67 0.9 2.6 0.00 0.10 0.00 88 1017.0
20260906103012 62 64 0.9 2.6 0.00 0.25 0.00 88 1017.0
20260906102508 62 67 1.7 2.6 0.00 0.35 0.00 88 1017.0
20260906102008 63 69 0.9 1.7 0.00 0.36 0.00 88 1017.0
20260906101516 63 64 0.9 1.7 0.00 0.39 0.00 88 1016.9
20260906101002 63 62 0.9 3.5 0.00 0.45 0.00 88 1017.0
20260906100502 63 63 0.9 3.5 0.00 0.52 0.00 88 1016.8
20260906100008 63 72 1.7 3.5 0.00 0.57 0.00 88 1016.7
20260906095503 63 67 1.7 3.5 0.00 0.60 0.00 88 1016.7
20260906095002 63 63 1.7 3.5 0.00 0.62 0.00 88 1016.7
20260906094504 63 63 1.7 3.5 0.00 0.64 0.00 88 1016.6
20260906094003 63 67 1.7 3.5 0.00 0.67 0.00 88 1016.6
20260906093503 63 51 1.7 3.5 0.00 0.71 0.00 88 1016.6
20260906093009 63 75 1.7 3.5 0.00 0.71 0.00 87 1016.7
20260906092504 63 68 0.9 3.5 0.00 0.72 0.00 87 1016.6
20260906092011 64 64 1.7 3.5 0.00 0.73 0.00 87 1016.5
20260906091524 64 66 0.9 1.7 0.00 0.75 0.00 87 1016.5
20260906091007 64 61 0.9 1.7 0.00 0.76 0.00 88 1016.5
20260906090509 64 53 0.9 2.6 0.00 0.80 0.00 87 1016.6
20260906090005 64 61 0.9 2.6 0.00 0.84 0.00 87 1016.5
20260906085503 64 61 0.9 1.7 0.00 0.84 0.00 87 1016.5
20260906085003 65 61 0.9 3.5 0.00 0.84 0.00 87 1016.5
20260906084504 65 52 0.9 4.3 0.00 0.84 0.00 86 1016.5
20260906084004 65 57 1.7 4.3 0.00 0.84 0.00 85 1016.4
20260906083502 65 63 1.7 7.0 0.00 0.84 0.00 85 1016.3
20260906083013 66 53 1.7 7.0 0.00 0.84 0.00 85 1016.3
20260906082503 66 68 2.6 6.1 0.00 0.84 0.00 85 1016.4
20260906082003 66 53 2.6 6.1 0.00 0.84 0.00 85 1016.3
20260906081515 66 61 1.7 7.0 0.00 0.84 0.00 85 1016.3
20260906081007 66 62 2.6 7.0 0.00 0.84 0.00 84 1016.4
20260906080508 66 57 3.5 7.0 0.00 0.84 0.00 83 1016.3
20260906080016 66 57 3.5 7.0 0.00 0.84 0.00 83 1016.3
20260906075510 66 67 3.5 7.0 0.00 0.84 0.00 83 1016.4
20260906075009 66 69 2.6 7.0 0.00 0.84 0.00 82 1016.4
20260906074503 66 65 1.7 7.0 0.00 0.84 0.00 82 1016.4
20260906074003 67 65 2.6 4.3 0.00 0.84 0.00 81 1016.5
20260906073502 67 78 1.7 4.3 0.00 0.84 0.00 81 1016.5
20260906073005 67 49 2.6 7.8 0.00 0.84 0.00 81 1016.4
20260906072503 67 50 3.5 7.0 0.00 0.84 0.00 81 1016.4
20260906072003 67 59 1.7 6.1 0.00 0.84 0.00 81 1016.4
20260906071508 67 81 2.6 6.1 0.00 0.84 0.00 81 1016.4
20260906071007 67 60 2.6 6.1 0.00 0.84 0.00 80 1016.3
20260906070508 67 67 2.6 5.2 0.00 0.84 0.00 80 1016.3
20260906070015 67 69 3.5 5.2 0.00 0.84 0.00 80 1016.3
20260906065508 67 66 2.6 5.2 0.00 0.84 0.00 80 1016.3
20260906065013 67 62 1.7 3.5 0.00 0.84 0.00 81 1016.3
20260906064520 67 60 1.7 3.5 0.00 0.84 0.00 81 1016.3
20260906064012 68 70 1.7 4.3 0.00 0.84 0.00 80 1016.3
20260906063504 68 65 1.7 4.3 0.00 0.84 0.00 81 1016.3
20260906063005 68 71 1.7 5.2 0.00 0.84 0.00 81 1016.3
20260906062502 68 65 2.6 5.2 0.00 0.84 0.00 81 1016.3
20260906062003 68 61 1.7 4.3 0.00 0.84 0.00 82 1016.2
20260906061509 68 67 2.6 4.3 0.00 0.84 0.00 81 1016.3
20260906061003 68 72 1.7 3.5 0.00 0.84 0.00 83 1016.3
20260906060507 67 59 0.9 2.6 0.00 0.84 0.00 83 1016.3
20260906060024 67 58 0.9 2.6 0.00 0.84 0.00 83 1016.2
20260906055507 67 68 0.9 2.6 0.00 0.84 0.00 84 1016.2
20260906055007 67 64 0.9 1.7 0.00 0.84 0.00 84 1016.1
20260906054526 67 65 0.9 2.6 0.00 0.84 0.00 83 1016.0
20260906054012 67 60 1.7 2.6 0.00 0.84 0.00 83 1016.0
20260906053510 67 61 0.9 2.6 0.00 0.84 0.00 83 1015.9
20260906053028 67 69 0.9 2.6 0.00 0.84 0.00 83 1015.9
20260906052503 67 38 1.7 2.6 0.00 0.84 0.00 83 1015.9
20260906052003 67 47 0.9 1.7 0.00 0.84 0.00 85 1015.9
20260906051506 67 66 0.9 1.7 0.00 0.84 0.00 85 1015.9
20260906051007 67 64 0.9 0.9 0.00 0.84 0.00 86 1015.9
20260906050503 67 63 0.9 1.7 0.00 0.84 0.00 86 1015.9
20260906050028 67 67 0.0 1.7 0.00 0.84 0.00 87 1015.9
20260906045506 67 66 0.9 1.7 0.00 0.84 0.00 87 1015.8
20260906045007 67 62 0.9 1.7 0.00 0.84 0.00 87 1015.8
20260906044528 67 65 0.9 1.7 0.00 0.84 0.00 87 1015.7
20260906044013 67 65 0.0 1.7 0.00 0.84 0.00 87 1015.8
20260906043512 67 65 0.0 1.7 0.00 0.84 0.00 86 1015.8
20260906043023 67 67 0.0 0.9 0.00 0.84 0.00 86 1015.6
20260906042511 67 67 0.0 0.9 0.00 0.84 0.00 86 1015.4
20260906042013 67 67 0.0 0.9 0.00 0.84 0.00 86 1015.4
20260906041508 67 67 0.0 0.9 0.00 0.84 0.00 86 1015.5
20260906041004 67 67 0.0 0.9 0.00 0.84 0.00 86 1015.4
20260906040503 67 67 0.0 1.7 0.00 0.84 0.00 85 1015.3
20260906040011 67 67 0.9 1.7 0.00 0.84 0.00 85 1015.3
20260906035505 68 65 0.9 1.7 0.00 0.84 0.84 84 1015.4
20260906035004 68 66 0.9 3.5 0.00 0.84 0.84 84 1015.4
20260906034517 68 66 1.7 3.5 0.00 0.84 0.84 84 1015.4
20260906034007 68 67 1.7 3.5 0.00 0.84 0.84 84 1015.4
20260906033509 69 72 2.6 3.5 0.00 0.84 0.84 83 1015.3
20260906033036 69 63 1.7 3.5 0.00 0.84 0.84 86 1015.3
20260906032511 69 57 1.7 3.5 0.00 0.84 0.84 86 1015.3
20260906032013 69 61 2.6 3.5 0.00 0.84 0.84 87 1015.3
20260906031530 69 56 1.7 3.5 0.00 0.84 0.84 88 1015.4
20260906031017 70 62 1.7 3.5 0.00 0.84 0.84 89 1015.4
20260906030503 70 70 1.7 1.7 0.00 0.84 0.84 89 1015.5
20260906030012 70 65 0.9 3.5 0.00 0.84 0.84 89 1015.4
20260906025504 70 70 1.7 4.3 0.00 0.84 0.84 89 1015.4
20260906025004 70 55 2.6 4.3 0.00 0.84 0.84 89 1015.3
20260906024514 70 63 2.6 4.3 0.00 0.84 0.84 89 1015.3
20260906024009 70 63 2.6 5.2 0.00 0.84 0.84 89 1015.3
20260906023508 70 75 2.6 5.2 0.00 0.84 0.84 89 1015.3
20260906023017 71 73 1.7 4.3 0.00 0.84 0.84 89 1015.2
20260906022509 71 64 1.7 4.3 0.00 0.84 0.84 89 1015.2
20260906022012 71 58 2.6 5.2 0.00 0.84 0.84 89 1015.2
20260906021528 71 72 1.7 5.2 0.00 0.84 0.84 88 1015.2
20260906021014 71 77 1.7 7.8 0.00 0.84 0.84 88 1015.2
20260906020513 71 61 2.6 7.8 0.00 0.84 0.84 88 1015.2
20260906020030 72 59 3.5 6.1 0.00 0.84 0.84 88 1015.1
20260906015504 71 52 1.7 6.1 0.00 0.84 0.84 89 1015.1
20260906015004 71 54 2.6 7.0 0.00 0.84 0.84 89 1014.9
20260906014511 71 59 3.5 7.0 0.00 0.84 0.84 89 1014.9
20260906014005 72 63 2.6 7.8 0.00 0.84 0.84 89 1014.8
20260906013506 72 67 2.6 7.8 0.00 0.84 0.84 88 1014.7
20260906013014 72 70 2.6 7.8 0.00 0.84 0.84 88 1014.6
20260906012509 72 57 2.6 7.8 0.00 0.84 0.84 88 1014.6
20260906012012 72 74 3.5 7.0 0.00 0.84 0.84 88 1014.4
20260906011533 72 53 3.5 7.8 0.00 0.84 0.84 88 1014.3
20260906011015 72 55 1.7 7.8 0.00 0.84 0.84 88 1014.2
20260906010516 73 65 2.6 7.0 0.00 0.84 0.84 88 1014.1
20260906010032 73 59 3.5 7.8 0.00 0.84 0.84 88 1014.2
20260906005515 73 61 3.5 7.8 0.00 0.84 0.84 88 1014.2
20260906005015 73 40 1.7 8.7 0.00 0.84 0.84 88 1014.2
20260906004509 74 55 3.5 8.7 0.00 0.84 0.84 88 1014.1
20260906004004 74 61 2.6 7.8 0.00 0.84 0.84 88 1014.0
20260906003506 74 63 0.9 7.8 0.00 0.84 0.84 88 1013.9
20260906003013 74 73 2.6 5.2 0.00 0.84 0.84 88 1013.8
20260906002510 74 53 1.7 4.3 0.00 0.84 0.84 88 1013.7
20260906002008 74 61 1.7 3.5 0.00 0.84 0.84 87 1013.7
20260906001523 75 49 0.9 2.6 0.00 0.84 0.84 87 1013.8
20260906001011 75 66 1.7 2.6 0.00 0.84 0.84 87 1013.7
20260906000513 75 53 1.7 2.6 0.00 0.84 0.84 86 1013.7
20260906000030 75 55 0.9 2.6 0.00 0.84 0.84 85 1013.7
20260905235515 75 61 0.9 4.3 0.00 0.84 0.84 85 1013.6
20260905235020 75 59 1.7 4.3 0.00 0.84 0.84 85 1013.6
20260905234530 76 67 0.9 3.5 0.00 0.84 0.84 85 1013.6
20260905234016 76 59 1.7 5.2 0.00 0.84 0.84 85 1013.5
20260905233506 76 72 2.6 5.2 0.00 0.84 0.84 85 1013.6
20260905233009 76 60 1.7 5.2 0.00 0.84 0.84 85 1013.6
20260905232507 76 59 1.7 2.6 0.00 0.84 0.84 85 1013.7
20260905232006 77 60 0.9 2.6 0.00 0.84 0.84 84 1013.7
20260905231520 77 54 0.9 5.2 0.00 0.84 0.84 85 1013.8
20260905231010 77 59 1.7 5.2 0.00 0.84 0.84 84 1013.8
20260905230511 78 69 2.6 6.1 0.00 0.84 0.84 83 1013.8
20260905230028 78 30 1.7 6.1 0.00 0.84 0.84 82 1013.8
20260905225515 78 54 0.9 2.6 0.00 0.84 0.84 83 1013.7